Location: Bathsheba
(13.2167°N, 59.5167°W)
Time: 23:57:23
(UTC+00:00)

GPS 2-17 Rocket1 - Pass Details

Date: 18 September 2020
Orbit: 571 x 659 km, 20.3° (Epoch: 20 October)

Event Time Altitude Azimuth Distance (km) Brightness Sun altitude
Rises 22:59:29 0° 252° (WSW) 2,869 7.8 -16.1°
Reaches altitude 10° 23:01:48 10° 252° (WSW) 1,979 6.7 -16.7°
Maximum altitude 23:06:28 88° 161° (SSE) 635 3.0 -17.8°
Enters shadow 23:08:26 35° 75° (ENE) 1,019 3.7 -18.3°
